Location: Zihuatanejo
(17.6330°N, 101.5500°W)
Time: 22:02:58
(UTC-06:00)

Daily predictions for brighter satellites

Satellite Brightness Start Highest point End
(mag) Time Altitude Azimuth Time Altitude Azimuth Time Altitude Azimuth
Cosmos 1606 2.9 18:25:20 10° S 18:29:07 75° W 18:32:52 10° N
Cosmos 1441 Rocket 4.0 18:26:06 10° SSE 18:29:40 32° E 18:33:13 10° NNE
Cosmos 972 Rocket 4.3 18:25:18 10° NNW 18:30:11 71° W 18:35:24 10° S
Cosmos 1763 Rocket 3.4 18:31:09 10° N 18:36:16 71° ENE 18:41:19 10° SSE
Cosmos 1484 Rocket 2.9 18:32:44 10° S 18:36:31 77° W 18:40:23 10° NNW
CZ-4 R/B 1.2 18:35:02 10° SSE 18:38:55 68° ENE 18:42:45 10° N
Okean 2 Rocket 4.3 18:36:52 10° NNE 18:40:24 22° E 18:43:53 10° SE
Cosmos 1464 Rocket 3.9 18:36:03 10° S 18:42:10 81° E 18:48:17 10° N
Cosmos 304 Rocket 3.7 18:38:57 10° NNW 18:43:44 85° ENE 18:48:30 10° SSE
Cosmos 1908 Rocket 3.7 18:44:04 10° N 18:48:24 80° W 18:52:42 10° S
METEOR-M 4.3 18:44:14 10° SSE 18:49:20 48° ENE 18:54:26 10° N
Cosmos 972 4.3 18:44:30 10° N 18:49:23 81° ENE 18:54:24 10° SSE
SKYMED 2 4.0 18:46:11 10° N 18:50:29 67° WNW 18:54:47 10° SSW
SL-27 R/B 2.6 18:47:34 10° N 18:50:49 45° ENE 18:54:05 10° SSE
Cosmos 968 Rocket 3.4 18:46:31 10° S 18:51:38 75° ESE 18:56:47 10° NNE
BREEZE M DEB (TANK) 2.9 18:45:01 10° NW 18:51:58 68° NE 18:54:38 10° SE
EO 1 Del DPAF 3.9 18:49:04 10° N 18:52:48 58° WNW 18:56:32 10° SSW
Ariane Rocket 4.0 18:48:49 10° S 18:53:46 52° WSW 18:58:42 10° NNW
ERS-2 2.3 18:51:40 10° SSE 18:55:13 49° ENE 18:58:46 10° N
Okean 1-7 4.5 18:54:35 10° SSW 18:58:40 40° W 19:02:48 10° NNW
Cosmos 540 Rocket 3.9 18:54:57 10° N 18:59:43 38° ENE 19:04:27 10° SE
Cosmos 405 Rocket 3.6 19:00:22 10° SSW 19:04:07 49° W 19:07:47 10° N
ALOS 2.7 19:00:06 10° SE 19:04:25 38° ENE 19:08:43 10° N
Cosmos 2082 Rocket 2.6 19:02:34 10° N 19:07:47 38° ENE 19:12:58 10° SE
GPS 2-12 Rocket1 3.2 19:04:18 10° W 19:09:06 67° N 19:11:53 24° E
Cosmos 1602 4.0 19:05:53 10° NNE 19:09:32 42° E 19:13:12 10° SSE
Cosmos 841 Rocket 4.0 19:07:38 10° NNW 19:12:49 64° WSW 19:17:58 10° S
IUS-9 SRM-1 4.5 18:42:15 10° W 19:16:16 55° N 19:20:05 24° ENE
Cosmos 836 Rocket 4.5 19:11:50 10° N 19:17:01 58° ENE 19:22:12 10° SSE
Aurora 2 Rocket 3.3 19:15:22 10° WNW 19:21:33 61° SSW 19:24:43 19° SE
NOSS 3-1 (C) 3.4 19:19:15 10° S 19:24:28 49° ESE 19:26:53 30° NE
Centaur D-1AR AC-38 4.5 19:21:29 10° W 19:24:59 42° SSW 19:31:55 10° ESE
YAOGAN 1 4.0 19:21:34 10° S 19:25:37 40° W 19:29:41 10° NNW
SEDSat Delta rocket 3.3 19:22:28 10° WSW 19:26:34 51° NNW 19:27:53 35° NNE
GPS 2-18 Rocket1 3.6 19:28:01 10° W 19:31:57 57° SSW 19:33:12 37° SE
FENGYUN 3A 3.5 19:26:36 10° SSE 19:32:00 79° ENE 19:37:25 10° N
ERBS 4.2 19:28:59 10° NW 19:32:03 31° WSW 19:35:09 10° S
GPS 2-14 Rocket1 2.9 19:31:09 10° W 19:35:12 54° N 19:35:37 51° NNE
SPOT 3 Rocket 3.7 19:32:06 10° S 19:37:18 75° WSW 19:42:31 10° NNW
CZ-4C R/B 4.1 19:39:52 10° N 19:43:23 22° NNE 19:43:23 22° NNE
Delta 168 4.5 19:42:38 10° WNW 19:47:33 42° N 19:49:01 37° NNE
Cosmos 2369 Rocket 2.3 19:44:43 10° SSW 19:50:21 74° WNW 19:53:19 29° N
NOSS 3-1 (A) 3.2 19:45:03 10° S 19:50:24 56° ESE 19:50:41 55° E
Cosmos 1634 Rocket 3.9 19:49:30 10° S 19:55:40 89° W 19:59:54 22° N
Cosmos 1833 Rocket 3.3 19:55:42 10° NNW 20:01:11 55° WSW 20:06:39 10° S
Delta 7925 Rocket 4.2 19:55:41 10° W 20:01:33 62° NNW 20:02:51 53° NNE
ISS -0.7 20:04:34 10° WNW 20:05:01 10° NW 20:05:01 10° NW
Cosmos 2151 Rocket 4.1 20:04:18 46° NW 20:05:17 58° W 20:09:39 10° S
Nadezhda 4 Rocket 4.2 20:00:58 10° NNW 20:07:00 65° W 20:13:04 10° S
Okean 3 4.4 20:05:16 10° SSW 20:09:15 44° W 20:09:17 44° W
Cosmos 1812 4.5 20:08:45 10° SSW 20:11:01 30° SW 20:11:01 30° SW
Palapa 6 Rocket 3.8 20:11:38 10° WSW 20:17:22 86° W 20:17:22 86° W
Cosmos 1943 Rocket 2.3 20:12:52 10° SSW 20:18:16 68° W 20:18:16 68° W
Cosmos 1092 Rocket 4.1 20:19:05 10° N 20:25:11 69° W 20:31:22 10° S
CZ-3A R/B 4.4 20:55:36 10° NW 21:10:20 - SSE 20:59:23 37° WNW
CZ-3A R/B 4.5 20:55:40 10° WSW 21:20:47 57° W 21:20:47 57° W
